Location: Cañada de la Miga
(34.7595°N, 106.2317°W)
Time: 03:46:10
(UTC+00:00)

Courier 1B - All Passes

Search period start: 28 November 2021 00:00
Search period end: 08 December 2021 00:00
Orbit: 962 x 1209 km, 28.3° (Epoch: 27 November)

Date Brightness Start Highest point End Pass type
(mag) Time Alt. Az. Time Alt. Az. Time Alt. Az.
28 Nov - 01:04:40 10° SW 01:10:31 28° SSE 01:16:07 10° ESE visible
28 Nov - 02:57:35 10° WSW 03:04:06 46° S 03:10:19 10° ESE visible
28 Nov - 04:51:26 10° WSW 04:57:45 46° S 05:03:52 10° ESE night (unlit)
28 Nov - 06:45:50 10° WSW 06:51:11 27° SSW 06:56:31 10° SE night (unlit)
29 Nov - 00:11:24 10° SSW 00:16:52 23° SSE 00:22:05 10° ESE visible
29 Nov - 02:03:51 10° WSW 02:10:24 42° S 02:16:38 10° E visible
29 Nov - 03:57:36 10° WSW 04:04:05 49° S 04:10:19 10° ESE visible
29 Nov - 05:51:51 10° WSW 05:57:37 33° SSW 06:03:17 10° SE night (unlit)
29 Nov - 07:47:57 10° SW 07:50:49 13° SSW 07:53:42 10° S night (unlit)
29 Nov - 23:18:23 10° SSW 23:23:11 18° SSE 23:27:48 10° ESE daylight
30 Nov - 01:10:09 10° SW 01:16:42 38° SSE 01:22:54 10° E visible
30 Nov - 03:03:44 10° WSW 03:10:24 50° S 03:16:44 10° ESE visible
30 Nov - 04:57:53 10° W 05:04:00 39° SSW 05:09:57 10° SE night (unlit)
30 Nov - 06:53:07 10° WSW 06:57:18 18° SSW 07:01:27 10° SSE night (unlit)
30 Nov - 22:25:50 10° S 22:29:30 14° SSE 22:33:04 10° ESE daylight
01 Dec - 00:16:33 10° SW 00:22:59 33° SSE 00:29:06 10° E visible
01 Dec - 02:09:52 10° WSW 02:16:41 49° S 02:23:07 10° ESE visible
01 Dec - 04:03:57 10° W 04:10:22 44° S 04:16:31 10° ESE visible
01 Dec - 05:58:44 10° WSW 06:03:45 23° SSW 06:08:41 10° SSE night (unlit)
01 Dec - 21:35:02 10° SSE 21:35:48 10° SSE 21:36:34 10° SE daylight
01 Dec - 23:23:04 10° SW 23:29:16 28° SSE 23:35:10 10° ESE daylight
02 Dec - 01:16:01 10° WSW 01:22:56 47° S 01:29:27 10° E visible
02 Dec - 03:10:01 10° WSW 03:16:42 48° S 03:23:02 10° ESE visible
02 Dec - 05:04:32 10° WSW 05:10:11 29° SSW 05:15:39 10° SE night (unlit)
02 Dec - 22:29:47 10° SSW 22:35:32 23° SSE 22:41:04 10° ESE daylight
03 Dec - 00:22:13 10° WSW 00:29:11 43° SSE 00:35:45 10° E visible
03 Dec - 02:16:04 10° WSW 02:22:59 51° S 02:29:29 10° ESE visible
03 Dec - 04:10:27 10° W 04:16:36 35° SSW 04:22:28 10° SE visible
03 Dec - 06:06:27 10° WSW 06:09:48 14° SSW 06:13:07 10° S night (unlit)
03 Dec - 21:36:47 10° SSW 21:41:48 19° SSE 21:46:41 10° ESE daylight
03 Dec - 23:28:29 10° SW 23:35:24 39° SSE 23:41:58 10° E daylight
04 Dec - 01:22:08 10° WSW 01:29:13 52° S 01:35:52 10° ESE visible
04 Dec - 03:16:24 10° W 03:22:56 41° SSW 03:29:08 10° SE visible
04 Dec - 05:11:39 10° WSW 05:16:16 19° SSW 05:20:46 10° SSE night (unlit)
04 Dec - 20:44:18 10° S 20:48:04 14° SSE 20:51:48 10° ESE daylight
04 Dec - 22:34:52 10° SW 22:41:37 34° SSE 22:48:05 10° E daylight
05 Dec - 00:28:12 10° WSW 00:35:25 50° S 00:42:13 10° ESE visible
05 Dec - 02:22:23 10° W 02:29:14 46° S 02:35:42 10° ESE visible
05 Dec - 04:17:13 10° WSW 04:22:42 25° SSW 04:27:59 10° SSE visible
05 Dec - 21:41:25 10° SW 21:47:50 28° SSE 21:54:03 10° ESE daylight
05 Dec - 23:34:19 10° WSW 23:41:36 48° S 23:48:30 10° E daylight
06 Dec - 01:28:22 10° WSW 01:35:29 50° S 01:42:11 10° ESE visible
06 Dec - 03:22:58 10° W 03:29:06 31° SSW 03:34:55 10° SE visible
06 Dec - 05:20:18 10° SW 05:22:16 11° SSW 05:24:11 10° SSW night (unlit)
06 Dec - 20:48:11 10° SSW 20:54:04 23° SSE 20:59:49 10° ESE daylight
06 Dec - 22:40:30 10° WSW 22:47:46 44° SSE 22:54:43 10° E daylight
07 Dec - 00:34:22 10° WSW 00:41:41 52° S 00:48:34 10° ESE visible
07 Dec - 02:28:49 10° W 02:35:26 38° SSW 02:41:41 10° SE visible
07 Dec - 04:24:40 10° WSW 04:28:43 16° SSW 04:32:40 10° S visible
07 Dec - 19:55:18 10° SSW 20:00:19 18° SSE 20:05:16 10° ESE daylight
07 Dec - 21:46:48 10° SW 21:53:55 39° SSE 22:00:50 10° E daylight
07 Dec - 23:40:24 10° WSW 23:47:50 53° S 23:54:54 10° ESE daylight
